Regional Weather Roundup
Issued by NWS Wakefield, VA

Home | Current Version | Previous Version | Text Only | Print | Product List | Glossary Off
Versions: 1 2 3 4 5 6 7 8 9 10 11 12 13 14 15 16 17 18 19 20 21 22 23 24 25 26 27

000
ASUS41 KAKQ 281115
RWRAKQ

REGIONAL WEATHER ROUNDUP
NATIONAL WEATHER SERVICE WAKEFIELD VA
700 AM EDT FRI APR 28 2017

Note: "fair" indicates few or no clouds below 12,000 feet with no
significant weather and/or obstructions to visibility. * = Denotes
station may not report precipitation (e.g., rain,snow,etc.),
thunder or fog.

VAZ042-051-052>054-056-281200-
NORTHERN VIRGINIA

CITY           SKY/WX    TMP DP  RH WIND       PRES   REMARKS
WASH NATIONAL  PTCLDY    67  61  81 W3        29.97R
DULLES         PTCLDY    58  57  97 CALM      29.97R FOG
FORT BELVOIR   CLEAR     60  58  93 SE3       29.97R
QUANTICO       PTCLDY    66  62  87 CALM      29.99R
FREDERICKSBRG* CLEAR     65  65 100 CALM      29.97R
STAFFORD*      CLEAR     62  62 100 CALM      30.02R
WARRENTON      PTCLDY    58  55  91 CALM      29.97R FOG
CULPEPER*      FOG       57  57 100 CALM      29.99R VSB 1/2
MANASSAS*        N/A     57  57 100 S5        29.98R FOG
LEESBURG*      CLEAR     61  61 100 CALM      29.99R
WINCHESTER     CLEAR     59  55  88 W5        30.00R FOG
FRONT ROYAL*   SUNNY     61  59  94 CALM      29.99R
LURAY*         SUNNY     55  55 100 S3        30.01R FOG
$$

VAZ048-049-060>072-079>083-281200-
CENTRAL AND SOUTH CENTRAL VIRGINIA

CITY           SKY/WX    TMP DP  RH WIND       PRES   REMARKS
RICHMOND       MOCLDY    66  66 100 CALM      29.98R
CHESTERFIELD*  PTSUNNY  N/A N/A N/A CALM      30.00R
PETERSBURG*    CLOUDY    66  63  90 CALM      30.00R
HANOVER        CLOUDY    66  64  93 MISG      30.00R
TAPPAHANNOCK*    N/A     67  67 100 MISG        N/A
QUINTON*       CLOUDY    67  67  99 S3        29.98R
CHARLOTTSVILLE CLEAR     61  60  97 CALM      29.98R
GORDONSVILLE*  SUNNY     57  57 100 CALM      29.98R FOG
ORANGE*        CLEAR     57  57 100 CALM      29.98R FOG
LOUISA*        CLEAR     64  64 100 W3        29.97R
BUMPASS*       PTSUNNY   63  63 100 CALM      29.98R
FARMVILLE*     FOG       63  63 100 CALM      29.98R VSB<1/4
CREWE*           N/A     64  64 100 CALM      29.99R VSB 1/2
FORT PICKETT*  CLOUDY   N/A N/A N/A SW3       30.00R
CHASE CITY*    PTSUNNY   64  63  94 CALM      30.00R
CLARKSVILLE*   PTSUNNY   64  64 100 CALM      29.99R
SOUTH HILL*    MOCLDY    66  65  99 CALM      30.06R
LAWRENCEVILLE* PTSUNNY   66  65  97 CALM      30.00R
EMPORIA*         N/A     68  66  94 SE3       30.02R
$$

VAZ088>098-281200-
SOUTHEAST VIRGINIA

CITY           SKY/WX    TMP DP  RH WIND       PRES   REMARKS
NORFOLK        LGT RAIN  71  69  93 S7        30.00R
VIRGINIA BEACH TSTM      70  67  90 SW6       30.00R
NORFOLK NAVAL  CLOUDY    71  68  90 S6        30.02R THUNDER FOG
WEST POINT*    CLOUDY    69  64  84 CALM      30.00R
SALUDA*        CLOUDY    69  66  91 SW6       29.98R
NEWPORT NEWS   CLOUDY    70  67  90 SW10      29.99R
LANGLEY AFB    MOCLDY    70  68  94 SW8       30.00R THUNDER
FORT EUSTIS    CLOUDY    70  66  88 S5        29.97R
WILLIAMSBURG*  CLOUDY    72  66  83 CALM      30.00R
HR EXEC AP*    PTSUNNY   70  66  88 S3        29.99R THUNDER
FRANKLIN*      CLOUDY    68  67  96 CALM      30.01R
US460-WAKEFLD  CLOUDY    69  67  93 CALM      30.00R THUNDER
$$

VAZ020-022-025-037-045-281200-
WEST CENTRAL AND SOUTHWEST VIRGINIA

CITY           SKY/WX    TMP DP  RH WIND       PRES   REMARKS
STAUNTON*      CLOUDY    50  50 100 CALM      30.04R FOG
WAYNESBORO*    CLOUDY    52  52 100 CALM      30.03R VSB<1/4
HOT SPRINGS VA FOG       55  54  94 CALM      30.08R VSB<1/4
LYNCHBURG      FOG       56  56 100 CALM      30.03R VSB 1/2
DANVILLE       FOG       61  61 100 CALM      30.00R VSB 3/4
SOUTH BOSTON*  PTSUNNY   62  61  96 CALM      29.99S VSB 1/4
MARTINSVILLE   FOG       55  55  98 CALM      30.03R VSB<1/4
ROANOKE        FOG       56  56 100 CALM      30.04R VSB<1/4
BLACKSBURG     FOG       55  55  97 CALM      30.08R VSB<1/4
DUBLIN*        FOG       53  51  93 CALM      30.07R VSB<1/4
MARION*        FOG       54  53  96 CALM      30.08S VSB<1/4
HILLSVILLE*    FOG       51  51 100 CALM      30.05R VSB<1/4
RICHLANDS*     FOG       57  57 100 CALM      30.05R VSB 1/2
WISE*          CLEAR     55  52  88 CALM      30.06R
ABINGDON*      FOG       57  57 100 E3        30.03R VSB<1/4
$$

MDZ021>025-VAZ099-100-281200-
SOUTHERN MARYLAND AND THE DELMARVA PENINSULA

CITY           SKY/WX    TMP DP  RH WIND       PRES   REMARKS
PATUXENT RIVER CLOUDY    67  67 100 W9        29.97R
BAY BRIDGE APT CLOUDY    64  61  88 SW3       29.96R FOG
LEONARDTOWN    CLEAR     64  63  94 W5        29.99R
DOVER          CLOUDY    66 N/A N/A SW7       29.94R
GEORGETOWN     CLOUDY    70  63  78 SW7       29.97R
EASTON         PTCLDY    66  64  94 W5        30.00R
CAMBRIDGE      CLEAR     64  64 100 CALM      29.98R
SALISBURY      CLOUDY    67  66  97 SW5       29.97R
OCEAN CITY     CLOUDY    66  63  90 SW7       29.98R
WALLOPS ISLAND CLOUDY    65  65 100 S9        29.98R
ACCOMACK*      CLOUDY    71  65  83 SW10      29.98R
$$

NCZ012>017-030>032-281200-
NORTH CENTRAL AND EASTERN NORTH CAROLINA

CITY           SKY/WX    TMP DP  RH WIND       PRES   REMARKS
ROANOKE RAPIDS FAIR      68  68 100 S5        30.01R FOG
RALEIGH        PTCLDY    69  67  93 CALM      30.02R
ELIZABETH CITY CLOUDY    72  72 100 S7        30.01R
AHOSKIE*         N/A     70  69  97 S5        30.01R
EDENTON*       CLOUDY    74  71  88 S7        30.02R
CURRITUCK*     LGT RAIN  73  73 100 S5        30.03R
KILL DEVIL HLS CLOUDY    73  72  97 CALM      30.03R
MANTEO         CLOUDY    73  71  94 SW12      30.04R
CAPE HATTERAS  CLOUDY    74  70  87 SW10      30.07R FOG
TARBORO*       NOT AVBL
GOLDSBORO      PTCLDY    73  73 100 S3        30.01R
WASHINGTON     CLOUDY    73  71  93 S6        30.03R
GREENVILLE     CLOUDY    72  72 100 SW5       30.04R
NEW BERN       MOCLDY    74  72  93 S8        30.05R
WILMINGTON     CLOUDY    75  72  90 SW10      30.04R
$$

VAZ048-281200-
ELSEWHERE

CITY           SKY/WX    TMP DP  RH WIND       PRES   REMARKS
HARRISBURG PA  PTCLDY    61  61 100 NW3       29.95R FOG
BALTIMORE      PTCLDY    62  61  96 NW8       29.95R
ANNAPOLIS      CLEAR     68  61  78 VRB3      29.95R
ANDREWS AFB    CLEAR     64  60  86 SW5       29.97R
PHILADELPHIA   PTCLDY    65  62  90 SW6       29.94R
HENDERSON NC   CLEAR     63  61  96 SW3       30.01R FOG
GREENSBORO     CLOUDY    66  66 100 SW3       30.00R
ROCKY MOUNT    MOCLDY    72  71  97 S7        30.01R
$$

VAZ100-281200-
MARINE

STATION/POSITION TIME  TEMP    WIND        PRES    WAVE   SWELL
                       AIR SEA DIR/SP/G            HT/PER HT/PER
                 (UTC) (F)     (DEG/KT/KT) (MB)    (FT/S) (FT/S)
CAPE MAY NJ      1048   61 57  180/  4/  5 1014.1R
LEWES DE         1048   69 55  240/  5/  7 1014.1R
15NM E FENWICK I 1050   56 52  220/  8/ 10 1015.5R   5/ 9   5/ 9
OCEAN-CITY-INLET 1048   59 59  200/  8/  8 1015.4R
WACHAPREAGUE VA  1048   67 68  190/  7/  9 1015.1R
THOMAS POINT MD  1100   66 59  250/  6/  7   N/A
GOOSES REEF MD   1100   63 55  290/  6/  6 1015.5    1
COVE POINT MD    1048   67     270/ 12/ 16 1015.3R
SOLOMONS ISLAND  1048   66 60  280/  3/  6   N/A
BISHOPS HEAD MD  1048   64 64  220/  7/  7 1015.4R
PINEY POINT MD   1042          310/  5/  6   N/A
POTOMAC MD       1100   64 61  330/  4/  4 1014.1    1/ 2
CAMBRIDGE MD     1048   65 63                N/A
LEWISETTA VA     1048   69 65  250/  9/ 12 1014.5R
RAPPAHANNOCK LGT 1042          190/ 14/ 15 1015.9R
STINGRAY PT      1100   67 62  240/  8/  8 1015.2    1
YORK RVR RNG VA  1048   70     230/ 19/ 20 1014.5R
YORKTOWN VA      1048   70 65  210/  8/ 10 1015.1R
JAMESTOWN VA     1100   70 69  200/  8/ 12   N/A     0
DOMINION TERM VA 1048   69     190/  7/  9 1015.7R
KIPTOPEKE VA     1042      63  210/ 11/ 17   N/A
CHES BAY BRIDGE  1048   69     250/ 13/ 22 1015.9R
CAPE HENRY VA    1048   70     230/  7/ 12   N/A
WILLOUBY STN VA  1048   68     200/ 13/ 14 1016.8R
S CRANEY ISL VA  1048   69     190/  4/  4 1015.7R
CAPE HENRY BUOY  1042      62                N/A     3/ 8
1ST LANDING BUOY 1100   67 62              1016.3    1/ 4
CAPE CHARLES BUO 1051      59                N/A     3/ 8   2/11
64NM E OF VA BCH 1050   60 56  200/ 10/ 12 1017.3R   5/ 8   5/ 8
DUCK PIER NC     1048   73 57  210/ 14/ 16 1016.3R
44100 DUCK FRF   1005      62                N/A     4/ 7   2/11
44056 DUCK FRF   1030      58                N/A     3/10   2/11
OREGON INLET NC  1042   72 71  200/ 14/ 15 1016.9R
HATTERAS NC      1048   73 70  200/ 10/ 14 1017.7R
DIAMOND SHLS NC  1050   77 77  210/ 17/ 21 1018.0R   5/ 8   3/ 8
CAPE LOOKOUT NC  1100   73     200/  8/ 10 1018.0R
$$




USA.gov is the U.S. government's official web portal to all federal, state and local government web resources and services.